Location: Detroit
(42.3310°N, 83.0460°W)
Time: 20:15:19
(UTC-04:00)

A-11 Canister half - Pass Details

Date: 13 February 2023
Orbit: 1526 x 1682 km, 47.3° (Epoch: 29 March)

Event Time Altitude Azimuth Distance (km) Brightness Sun altitude
Rises 04:10:16 0° 242° (WSW) 4,704 - -37.5°
Reaches altitude 10° 04:13:19 10° 242° (WSW) 3,709 - -37.0°
Exits shadow 04:22:24 86° 229° (SW) 1,534 8.7 -35.4°
Maximum altitude 04:22:41 89° 154° (SSE) 1,530 8.8 -35.3°
Drops below altitude 10° 04:32:03 10° 66° (ENE) 3,707 11.8 -33.6°
Sets 04:35:06 0° 67° (ENE) 4,700 12.6 -33.1°
